• In Uzbekistan
  • List of Countries
  • For 7 days
  • Water Temperature
  • Satellite Maps
  • Weather Map
  • Weather Widgets
  • user-avatar
    Login

    Hourly Weather Artashat

    Today, 18 August, Friday

    Time Temperature Precipitation Wind Pressure Humidity
    00:00 +19°C° 0 mm 1 mps 604 mmHg 56%
    01:00 +18°C° 0 mm 1 mps 603 mmHg 57%
    02:00 +18°C° 0 mm 1 mps 603 mmHg 59%
    03:00 +16°C° 0 mm 1 mps 603 mmHg 67%
    04:00 +16°C° 0 mm 1 mps 603 mmHg 66%
    05:00 +16°C° 0 mm 1 mps 603 mmHg 65%
    06:00 +16°C° 0 mm 1 mps 603 mmHg 64%
    07:00 +19°C° 0 mm 1 mps 604 mmHg 56%
    08:00 +21°C° 0 mm 1 mps 605 mmHg 48%
    09:00 +23°C° 0 mm 1 mps 606 mmHg 38%
    10:00 +24°C° 0 mm 1 mps 606 mmHg 35%
    11:00 +25°C° 0 mm 1 mps 606 mmHg 31%
    12:00 +27°C° 0 mm 2 mps 606 mmHg 27%
    13:00 +27°C° 0 mm 2 mps 606 mmHg 26%
    14:00 +28°C° 0 mm 2 mps 606 mmHg 25%
    15:00 +27°C° 0 mm 3 mps 606 mmHg 25%
    16:00 +27°C° 0 mm 2 mps 606 mmHg 26%
    17:00 +26°C° 0 mm 2 mps 606 mmHg 26%
    18:00 +26°C° 0 mm 2 mps 606 mmHg 27%
    19:00 +25°C° 0 mm 2 mps 606 mmHg 31%
    20:00 +23°C° 0 mm 2 mps 606 mmHg 35%
    21:00 +22°C° 0 mm 1 mps 605 mmHg 39%
    22:00 +21°C° 0 mm 1 mps 605 mmHg 41%
    23:00 +21°C° 0 mm 1 mps 605 mmHg 43%

    Tomorrow, 19 August, Saturday

    Time Temperature Precipitation Wind Pressure Humidity
    00:00 +20°C° 0 mm 1 mps 605 mmHg 45%
    01:00 +19°C° 0 mm 1 mps 605 mmHg 47%
    02:00 +19°C° 0 mm 1 mps 605 mmHg 48%
    03:00 +18°C° 0 mm 1 mps 605 mmHg 49%
    04:00 +18°C° 0 mm 1 mps 605 mmHg 50%
    05:00 +18°C° 0 mm 1 mps 605 mmHg 51%
    06:00 +18°C° 0 mm 1 mps 605 mmHg 52%
    07:00 +20°C° 0 mm 1 mps 606 mmHg 46%
    08:00 +20°C° 0 mm 2 mps 606 mmHg 40%
    09:00 +23°C° 0 mm 2 mps 607 mmHg 35%
    10:00 +24°C° 0 mm 2 mps 607 mmHg 31%
    11:00 +26°C° 0 mm 2 mps 607 mmHg 28%
    12:00 +27°C° 0 mm 3 mps 608 mmHg 24%
    13:00 +28°C° 0 mm 3 mps 608 mmHg 23%
    14:00 +28°C° 0 mm 3 mps 608 mmHg 21%
    15:00 +29°C° 0 mm 3 mps 608 mmHg 19%
    16:00 +29°C° 0 mm 3 mps 607 mmHg 20%
    17:00 +28°C° 0 mm 3 mps 607 mmHg 21%
    18:00 +27°C° 0 mm 3 mps 607 mmHg 22%
    19:00 +26°C° 0 mm 3 mps 607 mmHg 26%
    20:00 +24°C° 0 mm 2 mps 607 mmHg 31%
    21:00 +23°C° 0 mm 2 mps 606 mmHg 35%
    22:00 +21°C° 0 mm 2 mps 606 mmHg 38%
    23:00 +20°C° 0 mm 2 mps 606 mmHg 41%

    Day after tomorrow, 20 August, Sunday

    Time Temperature Precipitation Wind Pressure Humidity
    00:00 +19°C° 0 mm 2 mps 606 mmHg 43%
    01:00 +19°C° 0 mm 2 mps 606 mmHg 45%
    02:00 +18°C° 0 mm 2 mps 605 mmHg 47%
    03:00 +18°C° 0 mm 1 mps 605 mmHg 49%
    04:00 +18°C° 0 mm 1 mps 605 mmHg 49%
    05:00 +18°C° 0 mm 1 mps 605 mmHg 50%
    06:00 +18°C° 0 mm 1 mps 605 mmHg 50%
    07:00 +20°C° 0 mm 1 mps 606 mmHg 44%
    08:00 +21°C° 0 mm 2 mps 607 mmHg 37%
    09:00 +23°C° 0 mm 2 mps 607 mmHg 31%
    10:00 +25°C° 0 mm 2 mps 607 mmHg 28%
    11:00 +26°C° 0 mm 3 mps 608 mmHg 25%
    12:00 +27°C° 0 mm 3 mps 608 mmHg 22%
    13:00 +28°C° 0 mm 3 mps 608 mmHg 21%
    14:00 +29°C° 0 mm 3 mps 608 mmHg 20%
    15:00 +30°C° 0 mm 4 mps 608 mmHg 18%
    16:00 +29°C° 0 mm 4 mps 607 mmHg 19%
    17:00 +28°C° 0 mm 3 mps 607 mmHg 19%
    18:00 +28°C° 0 mm 3 mps 607 mmHg 20%
    19:00 +26°C° 0 mm 3 mps 606 mmHg 24%
    20:00 +24°C° 0 mm 2 mps 606 mmHg 28%
    21:00 +21°C° 0 mm 2 mps 606 mmHg 32%
    22:00 +20°C° 0 mm 2 mps 606 mmHg 34%
    23:00 +19°C° 0 mm 2 mps 605 mmHg 36%

    21 August, Monday

    Time Temperature Precipitation Wind Pressure Humidity
    00:00 +20°C° 0 mm 1 mps 605 mmHg 38%
    01:00 +19°C° 0 mm 1 mps 605 mmHg 40%
    02:00 +18°C° 0 mm 1 mps 605 mmHg 42%
    03:00 +18°C° 0 mm 1 mps 604 mmHg 44%
    04:00 +16°C° 0 mm 1 mps 604 mmHg 45%
    05:00 +16°C° 0 mm 1 mps 604 mmHg 45%
    06:00 +16°C° 0 mm 1 mps 604 mmHg 46%
    07:00 +19°C° 0 mm 1 mps 605 mmHg 39%
    08:00 +21°C° 0 mm 1 mps 606 mmHg 33%
    09:00 +24°C° 0 mm 1 mps 606 mmHg 27%
    10:00 +25°C° 0 mm 2 mps 606 mmHg 24%
    11:00 +27°C° 0 mm 2 mps 607 mmHg 20%
    12:00 +28°C° 0 mm 2 mps 607 mmHg 17%
    13:00 +29°C° 0 mm 2 mps 607 mmHg 16%
    14:00 +29°C° 0 mm 2 mps 607 mmHg 14%
    15:00 +30°C° 0 mm 3 mps 606 mmHg 13%
    16:00 +29°C° 0 mm 2 mps 606 mmHg 15%
    17:00 +29°C° 0 mm 2 mps 606 mmHg 16%
    18:00 +28°C° 0 mm 2 mps 606 mmHg 18%
    19:00 +26°C° 0 mm 2 mps 605 mmHg 21%
    20:00 +24°C° 0 mm 1 mps 605 mmHg 24%
    21:00 +22°C° 0 mm 1 mps 605 mmHg 27%
    22:00 +21°C° 0 mm 1 mps 605 mmHg 28%
    23:00 +21°C° 0 mm 1 mps 604 mmHg 29%

    22 August, Tuesday

    Time Temperature Precipitation Wind Pressure Humidity
    00:00 +20°C° 0 mm 1 mps 604 mmHg 31%
    01:00 +19°C° 0 mm 1 mps 604 mmHg 32%
    02:00 +19°C° 0 mm 1 mps 603 mmHg 33%
    03:00 +18°C° 0 mm 1 mps 603 mmHg 34%
    04:00 +18°C° 0 mm 1 mps 603 mmHg 35%
    05:00 +18°C° 0 mm 1 mps 603 mmHg 36%
    06:00 +18°C° 0 mm 1 mps 603 mmHg 36%
    07:00 +20°C° 0 mm 1 mps 604 mmHg 32%
    08:00 +23°C° 0 mm 1 mps 605 mmHg 28%
    09:00 +25°C° 0 mm 1 mps 606 mmHg 24%
    10:00 +27°C° 0 mm 2 mps 606 mmHg 22%
    11:00 +28°C° 0 mm 2 mps 606 mmHg 19%
    12:00 +29°C° 0 mm 2 mps 606 mmHg 17%
    13:00 +30°C° 0 mm 2 mps 606 mmHg 16%
    14:00 +31°C° 0 mm 2 mps 606 mmHg 15%
    15:00 +31°C° 0 mm 3 mps 606 mmHg 14%
    16:00 +31°C° 0 mm 2 mps 606 mmHg 16%
    17:00 +30°C° 0 mm 2 mps 605 mmHg 18%
    18:00 +29°C° 0 mm 2 mps 605 mmHg 20%
    19:00 +27°C° 0 mm 2 mps 605 mmHg 23%
    20:00 +25°C° 0 mm 2 mps 604 mmHg 26%
    21:00 +24°C° 0 mm 1 mps 604 mmHg 29%
    22:00 +23°C° 0 mm 2 mps 604 mmHg 30%
    23:00 +21°C° 0 mm 2 mps 604 mmHg 32%

    23 August, Wednesday

    Time Temperature Precipitation Wind Pressure Humidity
    00:00 +21°C° 0 mm 2 mps 604 mmHg 33%
    01:00 +20°C° 0 mm 2 mps 604 mmHg 34%
    02:00 +19°C° 0 mm 2 mps 603 mmHg 36%
    03:00 +20°C° 0 mm 1 mps 603 mmHg 37%
    04:00 +20°C° 0 mm 1 mps 603 mmHg 38%
    05:00 +19°C° 0 mm 1 mps 603 mmHg 40%
    06:00 +19°C° 0 mm 1 mps 604 mmHg 41%
    07:00 +21°C° 0 mm 1 mps 604 mmHg 36%
    08:00 +24°C° 0 mm 2 mps 605 mmHg 31%
    09:00 +26°C° 0 mm 2 mps 606 mmHg 27%
    10:00 +27°C° 0 mm 2 mps 606 mmHg 24%
    11:00 +29°C° 0 mm 3 mps 606 mmHg 21%
    12:00 +30°C° 0 mm 3 mps 607 mmHg 18%
    13:00 +31°C° 0 mm 3 mps 607 mmHg 17%
    14:00 +33°C° 0 mm 3 mps 607 mmHg 16%
    15:00 +34°C° 0 mm 4 mps 607 mmHg 14%
    16:00 +33°C° 0 mm 3 mps 607 mmHg 15%
    17:00 +31°C° 0 mm 3 mps 606 mmHg 17%
    18:00 +30°C° 0 mm 3 mps 606 mmHg 18%
    19:00 +28°C° 0 mm 3 mps 606 mmHg 21%
    20:00 +26°C° 0 mm 2 mps 606 mmHg 25%
    21:00 +24°C° 0 mm 2 mps 605 mmHg 29%
    22:00 +23°C° 0 mm 2 mps 605 mmHg 31%
    23:00 +23°C° 0 mm 2 mps 605 mmHg 33%
    Show more